Location: *
(58.7167°N, 26.1833°E)
Time: 05:51:47
(UTC+00:00)

ATLAS 2AS CENTAUR R/B - Pass Details

Date: 25 August 2019
Orbit: 927 x 1285 km, 63.7° (Epoch: 14 September)

Event Time Altitude Azimuth Distance (km) Brightness Sun altitude
Rises 23:40:44 0° 310° (NW) 4,229 6.1 -18.7°
Reaches altitude 10° 23:43:58 10° 300° (WNW) 3,224 5.3 -18.5°
Maximum altitude 23:50:24 30° 244° (WSW) 2,006 3.7 -18.2°
Enters shadow 23:52:23 26° 219° (SW) 2,119 3.7 -18.1°
